User: anonymous   Login
Location: Unspecified
(0.0000°N, 0.0000°E)
Time: 06:08:33
(UTC+02:00)
Language:

Cosmos 1295 Rocket - Orbit

View from above orbital plane
View from above orbital plane
View from above satellite
View from above satellite

Ground track
Ground track

The orbit data is extracted from the following two-line orbital elements,

1 12682U 81077B   17231.43899737  .00000028  00000-0  12420-4 0  9999
2 12682  82.9198 328.8253 0034492 164.4731 195.7494 13.78540038811588
Epoch (UTC): 19 August 2017 10:32:09
Eccentricity: 0.0034492
inclination: 82.9198°
perigee height: 944 km
apogee height: 994 km
right ascension of ascending node: 328.8253°
argument of perigee: 164.4731°
revolutions per day: 13.78540038
mean anomaly at epoch: 195.7494°
orbit number at epoch: 81158

The dashed part of the orbit path shows where the satellite is in the earth's shadow,  

DLR